When you browse on this site, cookies collect data to enhance your experience and personalize the content and advertising you see.
Visit our Privacy Policy to learn more. By continuing to use the site, you agree to this use of cookies and data.
  • în România
  • Lista ţărilor
  • Pe 7 zile
  • Temperatura apei
  • Hartă satelitară
  • Meteo pe hartă
  • Widget-uri
  • user-avatar
    Intrare

    Meteo pe oră la Eremkino

    Astăzi, 17 Ianuarie, Joi

    Timp Temperatura Precipitaţii Vânt Presiune Umiditate
    00:00 -8°C° 0 mm 3 m/s 736 mmHg 91%
    01:00 -9°C° 0 mm 3 m/s 736 mmHg 91%
    02:00 -8°C° 0 mm 2 m/s 736 mmHg 91%
    03:00 -10°C° 0 mm 2 m/s 736 mmHg 92%
    04:00 -12°C° 0 mm 2 m/s 736 mmHg 93%
    05:00 -13°C° 0 mm 2 m/s 736 mmHg 94%
    06:00 -13°C° 0 mm 3 m/s 736 mmHg 94%
    07:00 -13°C° 0 mm 3 m/s 735 mmHg 94%
    08:00 -12°C° 0 mm 4 m/s 734 mmHg 93%
    09:00 -12°C° 0.3 mm 5 m/s 734 mmHg 92%
    10:00 -10°C° 0.3 mm 6 m/s 733 mmHg 91%
    11:00 -9°C° 0.3 mm 6 m/s 733 mmHg 90%
    12:00 -7°C° 0.4 mm 7 m/s 732 mmHg 89%
    13:00 -6°C° 0.4 mm 7 m/s 732 mmHg 88%
    14:00 -4°C° 0 mm 7 m/s 731 mmHg 88%
    15:00 -4°C° 0.2 mm 7 m/s 730 mmHg 87%
    16:00 -3°C° 0.2 mm 7 m/s 730 mmHg 86%
    17:00 -3°C° 0.2 mm 7 m/s 729 mmHg 85%
    18:00 -2°C° 0.3 mm 7 m/s 729 mmHg 85%
    19:00 -2°C° 0.3 mm 7 m/s 728 mmHg 86%
    20:00 -1°C° 0.3 mm 7 m/s 728 mmHg 86%
    21:00 -1°C° 0 mm 6 m/s 728 mmHg 86%
    22:00 -1°C° 0 mm 6 m/s 728 mmHg 86%
    23:00 -1°C° 0 mm 6 m/s 728 mmHg 85%

    Mâine, 18 Ianuarie, Vineri

    Timp Temperatura Precipitaţii Vânt Presiune Umiditate
    00:00 -1°C° 0 mm 6 m/s 729 mmHg 85%
    01:00 -1°C° 0 mm 6 m/s 729 mmHg 85%
    02:00 -1°C° 0 mm 6 m/s 730 mmHg 85%
    03:00 -1°C° 0.1 mm 5 m/s 730 mmHg 85%
    04:00 -1°C° 0.1 mm 5 m/s 731 mmHg 85%
    05:00 -1°C° 0.1 mm 5 m/s 731 mmHg 85%
    06:00 -1°C° 0 mm 4 m/s 732 mmHg 86%
    07:00 -2°C° 0 mm 4 m/s 732 mmHg 87%
    08:00 -2°C° 0 mm 4 m/s 733 mmHg 87%
    09:00 -3°C° 0 mm 4 m/s 734 mmHg 87%
    10:00 -2°C° 0 mm 3 m/s 734 mmHg 87%
    11:00 -4°C° 0 mm 3 m/s 735 mmHg 87%
    12:00 -4°C° 0.1 mm 3 m/s 735 mmHg 88%
    13:00 -3°C° 0.1 mm 2 m/s 735 mmHg 89%
    14:00 -1°C° 0.1 mm 1 m/s 736 mmHg 91%
    15:00 -4°C° 0.3 mm 2 m/s 735 mmHg 92%
    16:00 -4°C° 0.3 mm 2 m/s 735 mmHg 94%
    17:00 -5°C° 0.3 mm 2 m/s 735 mmHg 96%
    18:00 -6°C° 0.9 mm 2 m/s 735 mmHg 96%
    19:00 -7°C° 0.9 mm 3 m/s 734 mmHg 95%
    20:00 -8°C° 0.9 mm 3 m/s 734 mmHg 95%
    21:00 -8°C° 0.4 mm 3 m/s 735 mmHg 94%
    22:00 -9°C° 0.4 mm 3 m/s 735 mmHg 93%
    23:00 -8°C° 0.4 mm 2 m/s 736 mmHg 93%

    Poimâine, 19 Ianuarie, Sâmbătă

    Timp Temperatura Precipitaţii Vânt Presiune Umiditate
    00:00 -9°C° 0 mm 2 m/s 736 mmHg 93%
    01:00 -10°C° 0 mm 2 m/s 737 mmHg 92%
    02:00 -13°C° 0 mm 3 m/s 738 mmHg 92%
    03:00 -12°C° 0 mm 3 m/s 738 mmHg 93%
    04:00 -12°C° 0 mm 3 m/s 739 mmHg 93%
    05:00 -12°C° 0 mm 3 m/s 739 mmHg 94%
    06:00 -12°C° 0 mm 3 m/s 739 mmHg 92%
    07:00 -11°C° 0 mm 4 m/s 740 mmHg 91%
    08:00 -11°C° 0 mm 4 m/s 740 mmHg 90%
    09:00 -10°C° 0 mm 4 m/s 740 mmHg 89%
    10:00 -9°C° 0 mm 4 m/s 741 mmHg 87%
    11:00 -8°C° 0 mm 5 m/s 741 mmHg 85%
    12:00 -8°C° 0 mm 5 m/s 741 mmHg 86%
    13:00 -8°C° 0 mm 5 m/s 741 mmHg 86%
    14:00 -7°C° 0 mm 5 m/s 741 mmHg 86%
    15:00 -8°C° 0.1 mm 4 m/s 742 mmHg 87%
    16:00 -8°C° 0.1 mm 4 m/s 742 mmHg 88%
    17:00 -8°C° 0.1 mm 4 m/s 743 mmHg 89%
    18:00 -7°C° 0.1 mm 3 m/s 743 mmHg 89%
    19:00 -7°C° 0.1 mm 3 m/s 743 mmHg 90%
    20:00 -7°C° 0.1 mm 3 m/s 743 mmHg 90%
    21:00 -8°C° 0 mm 3 m/s 744 mmHg 91%
    22:00 -9°C° 0 mm 3 m/s 744 mmHg 92%
    23:00 -9°C° 0 mm 2 m/s 744 mmHg 93%

    20 Ianuarie, Duminică

    Timp Temperatura Precipitaţii Vânt Presiune Umiditate
    00:00 -9°C° 0 mm 3 m/s 744 mmHg 91%
    01:00 -8°C° 0 mm 3 m/s 745 mmHg 90%
    02:00 -8°C° 0 mm 4 m/s 745 mmHg 88%
    03:00 -9°C° 0 mm 4 m/s 744 mmHg 88%
    04:00 -9°C° 0 mm 4 m/s 744 mmHg 88%
    05:00 -11°C° 0 mm 5 m/s 743 mmHg 88%
    06:00 -10°C° 0.1 mm 5 m/s 743 mmHg 88%
    07:00 -10°C° 0.1 mm 5 m/s 743 mmHg 87%
    08:00 -8°C° 0.1 mm 5 m/s 742 mmHg 87%
    09:00 -7°C° 0.2 mm 5 m/s 742 mmHg 87%
    10:00 -6°C° 0.2 mm 5 m/s 742 mmHg 87%
    11:00 -5°C° 0.2 mm 5 m/s 742 mmHg 87%
    12:00 -5°C° 0.4 mm 5 m/s 742 mmHg 88%
    13:00 -5°C° 0.4 mm 4 m/s 742 mmHg 89%
    14:00 -5°C° 0.4 mm 3 m/s 741 mmHg 90%
    15:00 -6°C° 0.2 mm 3 m/s 741 mmHg 90%
    16:00 -7°C° 0.2 mm 3 m/s 742 mmHg 91%
    17:00 -8°C° 0.2 mm 3 m/s 742 mmHg 91%
    18:00 -7°C° 0 mm 2 m/s 742 mmHg 92%
    19:00 -7°C° 0 mm 2 m/s 742 mmHg 92%
    20:00 -8°C° 0 mm 2 m/s 742 mmHg 93%
    21:00 -9°C° 0 mm 2 m/s 743 mmHg 94%
    22:00 -10°C° 0 mm 2 m/s 743 mmHg 95%
    23:00 -12°C° 0 mm 2 m/s 743 mmHg 95%

    21 Ianuarie, Luni

    Timp Temperatura Precipitaţii Vânt Presiune Umiditate
    00:00 -13°C° 0 mm 2 m/s 743 mmHg 96%
    01:00 -14°C° 0 mm 2 m/s 743 mmHg 96%
    02:00 -15°C° 0 mm 2 m/s 743 mmHg 96%
    03:00 -16°C° 0 mm 2 m/s 743 mmHg 96%
    04:00 -16°C° 0 mm 2 m/s 743 mmHg 96%
    05:00 -17°C° 0 mm 2 m/s 743 mmHg 96%
    06:00 -17°C° 0 mm 2 m/s 743 mmHg 96%
    07:00 -17°C° 0 mm 2 m/s 743 mmHg 96%
    08:00 -18°C° 0 mm 2 m/s 743 mmHg 96%
    09:00 -16°C° 0 mm 2 m/s 744 mmHg 96%
    10:00 -15°C° 0 mm 2 m/s 744 mmHg 95%
    11:00 -14°C° 0 mm 2 m/s 744 mmHg 94%
    12:00 -13°C° 0 mm 2 m/s 744 mmHg 92%
    13:00 -13°C° 0 mm 2 m/s 744 mmHg 90%
    14:00 -12°C° 0 mm 2 m/s 745 mmHg 89%
    15:00 -14°C° 0 mm 2 m/s 745 mmHg 90%
    16:00 -15°C° 0 mm 2 m/s 745 mmHg 91%
    17:00 -16°C° 0 mm 2 m/s 746 mmHg 92%
    18:00 -17°C° 0 mm 2 m/s 746 mmHg 93%
    19:00 -18°C° 0 mm 2 m/s 746 mmHg 94%
    20:00 -19°C° 0 mm 2 m/s 746 mmHg 95%
    21:00 -19°C° 0 mm 2 m/s 746 mmHg 95%
    22:00 -20°C° 0 mm 2 m/s 747 mmHg 95%
    23:00 -20°C° 0 mm 2 m/s 747 mmHg 96%

    22 Ianuarie, Marţi

    Timp Temperatura Precipitaţii Vânt Presiune Umiditate
    00:00 -20°C° 0 mm 2 m/s 747 mmHg 96%
    01:00 -20°C° 0 mm 2 m/s 747 mmHg 96%
    02:00 -20°C° 0 mm 2 m/s 747 mmHg 96%
    03:00 -20°C° 0 mm 2 m/s 748 mmHg 96%
    04:00 -20°C° 0 mm 2 m/s 748 mmHg 96%
    05:00 -21°C° 0 mm 2 m/s 748 mmHg 96%
    06:00 -20°C° 0 mm 2 m/s 748 mmHg 96%
    07:00 -20°C° 0 mm 2 m/s 748 mmHg 96%
    08:00 -20°C° 0 mm 2 m/s 749 mmHg 96%
    09:00 -19°C° 0 mm 2 m/s 749 mmHg 95%
    10:00 -18°C° 0 mm 2 m/s 749 mmHg 94%
    11:00 -17°C° 0 mm 2 m/s 750 mmHg 93%
    12:00 -17°C° 0 mm 2 m/s 750 mmHg 93%
    13:00 -16°C° 0 mm 2 m/s 750 mmHg 93%
    14:00 -16°C° 0 mm 2 m/s 750 mmHg 93%
    15:00 -17°C° 0 mm 2 m/s 750 mmHg 94%
    16:00 -18°C° 0 mm 2 m/s 750 mmHg 95%
    17:00 -20°C° 0 mm 2 m/s 750 mmHg 96%
    18:00 -20°C° 0 mm 2 m/s 750 mmHg 97%
    19:00 -21°C° 0 mm 2 m/s 751 mmHg 97%
    20:00 -21°C° 0 mm 2 m/s 751 mmHg 98%
    21:00 -21°C° 0 mm 2 m/s 751 mmHg 98%
    22:00 -21°C° 0 mm 2 m/s 751 mmHg 98%
    23:00 -23°C° 0 mm 2 m/s 751 mmHg 98%
    Arată mai mult